[[{"header":{"parameterUnit":"m.s-1","parameterCategory":1,"la1":30.2991,"la2":30.254,"lo1":-89.0895,"lo2":-89.0444,"dy":0.0017,"dx":0.0017,"nx":28,"ny":28,"refTime":"2025-11-23T03:00:00:Z","depth":0,"parameterNumber":2,"parameterNumberName":"U-component_of_WINDS"},"data":[0,0,0,0,0,0,0,0,0,0,0,0,0,0,0,0,0,0,0,0,0,0,0,0,0,0,0,0,0,0,0,0,0,0,0,0,0,0,0,0,0,0,0,0,0,0,0,0,0,0,0,0,0,0,0,0,0,0,-1.6847,-1.6847,0,-1.681,-1.681,-1.6809,-1.6765,-1.6764,-1.6763,-1.6763,-1.6724,-1.6724,-1.6724,0,0,0,0,0,0,0,0,0,0,0,0,0,-1.6881,-1.6881,-1.6847,-1.6847,-1.6846,-1.681,-1.681,-1.6809,-1.6765,-1.6764,-1.6763,-1.6762,-1.6725,-1.6724,-1.6724,0,0,0,0,0,0,0,0,0,0,0,0,0,-1.6858,-1.6881,-1.6847,-1.682,-1.6817,-1.681,-1.681,-1.6809,-1.6765,-1.6764,-1.6763,-1.6762,-1.6725,-1.6724,-1.6724,-1.6741,0,0,-1.6722,-1.6722,0,0,0,0,0,0,0,0,-1.6859,-1.6856,-1.6825,-1.6822,-1.6819,-1.6791,-1.6807,-1.6786,-1.6765,-1.6785,-1.6763,-1.6762,-1.6747,-1.6745,-1.674,-1.6739,-1.6737,-1.6722,-1.6721,-1.6721,-1.6721,0,0,0,0,0,0,0,-1.6861,-1.6858,-1.6833,-1.6824,-1.6821,-1.681,-1.6805,-1.6803,-1.6772,-1.6783,-1.678,-1.6776,-1.6746,-1.6741,-1.6739,-1.6736,-1.6722,-1.6721,-1.6721,-1.6721,-1.6749,-1.675,0,0,0,0,0,0,-1.6866,-1.6859,-1.6834,-1.6831,-1.6837,-1.681,-1.6805,-1.6801,-1.6772,-1.6767,-1.6777,-1.6774,-1.6742,-1.674,-1.6737,-1.6756,-1.6721,-1.6721,-1.672,-1.6748,-1.6749,-1.675,0,0,0,0,0,0,-1.6867,-1.6865,-1.6835,-1.6845,-1.684,-1.6811,-1.6806,-1.6801,-1.6796,-1.6768,-1.6762,-1.6778,-1.6741,-1.6738,-1.674,-1.6754,-1.672,-1.672,-1.6747,-1.6748,-1.675,-1.6794,0,0,0,0,0,0,-1.6868,-1.6865,-1.6871,-1.6845,-1.684,-1.6839,-1.6807,-1.6801,-1.6795,-1.6791,-1.6767,-1.6762,-1.674,-1.6742,-1.674,-1.6753,-1.6719,-1.6745,-1.6747,-1.6749,-1.6791,-1.6797,-1.6802,0,0,0,0,0,-1.687,-1.6884,-1.6871,-1.6868,-1.6846,-1.684,-1.6837,-1.6812,-1.6796,-1.6802,-1.6784,-1.6762,-1.6753,-1.6742,-1.674,-1.6753,-1.6744,-1.6747,-1.6749,-1.6789,-1.6796,-1.6802,0,0,0,0,0,0,-1.6912,-1.688,-1.6866,-1.6872,-1.6859,-1.6832,-1.6839,-1.682,-1.6811,-1.6807,-1.6777,-1.6772,-1.6778,-1.6766,-1.6754,-1.6769,-1.6746,-1.6748,-1.6777,-1.6783,-1.6788,-1.6791,-1.6719,0,0,0,0,0,-1.6922,-1.6919,-1.6892,-1.69,-1.6895,-1.6868,-1.6864,-1.6846,-1.6831,-1.6826,-1.6808,-1.6794,-1.6788,-1.6785,-1.6778,-1.6789,-1.6784,-1.6798,-1.6803,-1.6808,-1.681,-1.6816,-1.6822,-1.6759,-1.6759,-1.6758,0,0,-1.6943,-1.6925,-1.6925,-1.6908,-1.6896,-1.6894,-1.6863,-1.6862,-1.6861,-1.6825,-1.6827,-1.6813,-1.6796,-1.6804,-1.6806,-1.6794,-1.6826,-1.6811,-1.6815,-1.6814,-1.682,-1.6826,-1.6831,-1.676,-1.676,-1.676,0,0,-1.698,-1.6966,-1.6972,-1.6961,-1.6943,-1.6925,-1.6927,-1.6904,-1.6894,-1.6895,-1.6868,-1.6866,-1.6856,-1.6846,-1.6839,-1.6875,-1.6855,-1.6873,-1.6901,-1.6908,-1.6913,-1.6918,-1.6931,-1.6936,-1.6876,-1.6876,-1.6876,0,-1.7008,-1.7004,-1.6978,-1.6979,-1.6973,-1.6941,-1.6948,-1.6938,-1.6919,-1.6916,-1.6902,-1.6891,-1.6877,-1.6882,-1.6891,-1.6886,-1.6888,-1.6876,-1.6915,-1.6919,-1.6922,-1.6935,-1.694,-1.6878,-1.6878,-1.6878,-1.6877,0,-1.704,-1.7038,-1.7045,-1.7028,-1.7023,-1.7027,-1.7002,-1.7,-1.6983,-1.6967,-1.697,-1.6952,-1.6942,-1.6942,-1.6925,-1.6945,-1.6938,-1.692,-1.6896,-1.6932,-1.6943,-1.6947,-1.6882,-1.6881,-1.688,-1.6879,0,0,-1.7101,-1.7071,-1.7074,-1.7067,-1.7045,-1.7043,-1.7047,-1.7037,-1.7036,-1.7025,-1.7027,-1.7021,-1.7004,-1.6997,-1.6979,-1.6985,-1.7016,-1.6966,-1.6965,-1.6977,-1.7039,-1.7053,-1.7059,-1.7003,-1.7003,-1.7004,-1.704,0,-1.7135,-1.7138,-1.7116,-1.7125,-1.7124,-1.7095,-1.7098,-1.7085,-1.7071,-1.7068,-1.7053,-1.7049,-1.7027,-1.7023,-1.7028,-1.7011,-1.7028,-1.7008,-1.7005,-1.7005,-1.7011,-1.7064,-1.7079,-1.7114,-1.7045,-1.7045,-1.7046,0,-1.7174,-1.7165,-1.7175,-1.7155,-1.7154,-1.7157,-1.7147,-1.7144,-1.713,-1.712,-1.7113,-1.7092,-1.7095,-1.7072,-1.7076,-1.7063,-1.7061,-1.7053,-1.7054,-1.7053,-1.7028,-1.7065,-1.7124,-1.713,-1.7052,-1.7052,-1.7051,0,-1.7219,-1.7209,-1.7215,-1.7209,-1.7186,-1.7189,-1.7179,-1.7164,-1.7161,-1.7152,-1.715,-1.7142,-1.7137,-1.7132,-1.7111,-1.7096,-1.7117,-1.7093,-1.7109,-1.711,-1.7115,-1.7115,-1.7175,-1.7113,-1.7113,-1.7113,-1.7113,0,-1.7258,-1.7266,-1.7235,-1.7238,-1.7246,-1.722,-1.7229,-1.7217,-1.7204,-1.7205,-1.7179,-1.7181,-1.7152,-1.715,-1.7134,-1.714,-1.7138,-1.713,-1.7126,-1.7133,-1.7134,-1.7131,-1.7128,-1.7114,-1.7114,-1.7114,-1.7113,0,-1.731,-1.7289,-1.7293,-1.7271,-1.7266,-1.7273,-1.7254,-1.7257,-1.7242,-1.7243,-1.7242,-1.7218,-1.7215,-1.7194,-1.7186,-1.7175,-1.7188,-1.7178,-1.7192,-1.7189,-1.7208,-1.7207,-1.7268,-1.7275,-1.7208,-1.7209,-1.721,0,-1.7336,-1.7342,-1.7321,-1.732,-1.7312,-1.731,-1.7307,-1.7282,-1.728,-1.7266,-1.727,-1.7265,-1.726,-1.7257,-1.7239,-1.7234,-1.7224,-1.7246,-1.7223,-1.7231,-1.7226,-1.7226,-1.7227,-1.7251,-1.7252,-1.7253,-1.7253,0,-1.7387,-1.7377,-1.7373,-1.7366,-1.7362,-1.7356,-1.7347,-1.7348,-1.7321,-1.732,-1.7317,-1.7313,-1.7306,-1.7302,-1.7293,-1.7284,-1.7265,-1.7261,-1.7265,-1.7272,-1.728,-1.7277,-1.7206,-1.7259,-1.7259,-1.7258,-1.7258,-1.7258,-1.7427,-1.7431,-1.7418,-1.7414,-1.7406,-1.7399,-1.7401,-1.7387,-1.7384,-1.7376,-1.7362,-1.7362,-1.7349,-1.7336,-1.7329,-1.7328,-1.7317,-1.7322,-1.7323,-1.7325,-1.7329,-1.728,-1.7327,-1.7326,-1.7326,-1.7326,-1.7326,0,-1.7477,-1.7467,-1.7465,-1.7454,-1.7452,-1.7435,-1.7425,-1.7425,-1.7425,-1.7415,-1.7411,-1.7408,-1.7405,-1.7388,-1.7382,-1.7386,-1.7377,-1.7385,-1.7385,-1.7383,-1.7339,-1.7337,-1.7393,-1.7393,-1.7393,-1.7393,-1.7393,-1.7393,-1.7502,-1.7509,-1.7497,-1.75,-1.749,-1.749,-1.7486,-1.748,-1.7472,-1.7471,-1.7468,-1.7457,-1.7445,-1.7439,-1.7435,-1.743,-1.743,-1.7441,-1.7434,-1.7393,-1.7386,-1.738,-1.7378,-1.7441,-1.7441,-1.7478,-1.7478,-1.7478]},{"header":{"parameterUnit":"m.s-1","parameterCategory":1,"la1":30.2991,"la2":30.254,"lo1":-89.0895,"lo2":-89.0444,"dy":0.0017,"dx":0.0017,"nx":28,"ny":28,"refTime":"2025-11-23T03:00:00:Z","depth":0,"parameterNumber":3,"parameterNumberName":"V-component_of_WINDS"},"data":[0,0,0,0,0,0,0,0,0,0,0,0,0,0,0,0,0,0,0,0,0,0,0,0,0,0,0,0,0,0,0,0,0,0,0,0,0,0,0,0,0,0,0,0,0,0,0,0,0,0,0,0,0,0,0,0,0,0,-3.4632,-3.4632,0,-3.4678,-3.4678,-3.4679,-3.465,-3.4648,-3.4647,-3.4646,-3.4689,-3.4691,-3.4693,0,0,0,0,0,0,0,0,0,0,0,0,0,-3.4515,-3.4517,-3.4632,-3.4632,-3.4633,-3.4678,-3.4678,-3.4679,-3.465,-3.4648,-3.4647,-3.4645,-3.4688,-3.4691,-3.4694,0,0,0,0,0,0,0,0,0,0,0,0,0,-3.4564,-3.4518,-3.4632,-3.4624,-3.4624,-3.4678,-3.4679,-3.4679,-3.465,-3.4648,-3.4646,-3.4644,-3.4687,-3.469,-3.4694,-3.4757,0,0,-3.4705,-3.4707,0,0,0,0,0,0,0,0,-3.4561,-3.4568,-3.4624,-3.4625,-3.4624,-3.4656,-3.4653,-3.4705,-3.4651,-3.464,-3.4646,-3.4643,-3.4679,-3.4683,-3.4696,-3.4759,-3.4761,-3.4705,-3.4708,-3.4709,-3.471,0,0,0,0,0,0,0,-3.4558,-3.4566,-3.465,-3.4625,-3.4625,-3.4617,-3.4622,-3.4663,-3.467,-3.4641,-3.4639,-3.4645,-3.4679,-3.4693,-3.4697,-3.4761,-3.4705,-3.4708,-3.4711,-3.4712,-3.488,-3.4882,0,0,0,0,0,0,-3.4556,-3.4563,-3.4648,-3.4651,-3.4587,-3.4621,-3.4626,-3.4648,-3.467,-3.4671,-3.4647,-3.4643,-3.4688,-3.4693,-3.4698,-3.4775,-3.4709,-3.4712,-3.4715,-3.4877,-3.488,-3.4883,0,0,0,0,0,0,-3.4553,-3.4563,-3.4647,-3.4607,-3.4617,-3.4625,-3.465,-3.465,-3.4664,-3.4674,-3.4675,-3.466,-3.4686,-3.4693,-3.4743,-3.4776,-3.4714,-3.4717,-3.4875,-3.4878,-3.4882,-3.4928,0,0,0,0,0,0,-3.455,-3.4563,-3.4587,-3.4608,-3.4619,-3.4692,-3.4652,-3.4652,-3.4671,-3.4667,-3.4687,-3.4688,-3.4685,-3.4738,-3.4747,-3.478,-3.472,-3.4872,-3.4876,-3.488,-3.4924,-3.4933,-3.494,0,0,0,0,0,-3.4546,-3.4597,-3.4589,-3.4599,-3.465,-3.4694,-3.47,-3.4697,-3.4674,-3.4698,-3.4705,-3.4688,-3.4771,-3.4744,-3.4753,-3.4788,-3.487,-3.4875,-3.488,-3.492,-3.4931,-3.494,0,0,0,0,0,0,-3.4578,-3.46,-3.4591,-3.465,-3.4671,-3.4689,-3.4719,-3.4708,-3.4734,-3.473,-3.4723,-3.4728,-3.4781,-3.4789,-3.4758,-3.4851,-3.4817,-3.4824,-3.4843,-3.4854,-3.4862,-3.4859,-3.4723,0,0,0,0,0,-3.4593,-3.4628,-3.4644,-3.4695,-3.4706,-3.4711,-3.473,-3.4726,-3.4746,-3.4754,-3.4764,-3.4783,-3.4814,-3.4834,-3.4863,-3.4924,-3.4929,-3.4953,-3.4961,-3.4968,-3.4975,-3.5009,-3.5021,-3.49,-3.49,-3.49,0,0,-3.4622,-3.4638,-3.466,-3.4702,-3.4717,-3.4753,-3.4718,-3.4757,-3.4783,-3.4759,-3.4808,-3.4816,-3.4837,-3.4894,-3.4919,-3.4902,-3.5009,-3.4975,-3.498,-3.4983,-3.5016,-3.5027,-3.5038,-3.4903,-3.4902,-3.4902,0,0,-3.4695,-3.471,-3.4755,-3.4772,-3.4797,-3.48,-3.4811,-3.4831,-3.4837,-3.4886,-3.4869,-3.49,-3.4952,-3.4969,-3.4984,-3.5064,-3.505,-3.5074,-3.5117,-3.5151,-3.5161,-3.5169,-3.5199,-3.521,-3.508,-3.508,-3.508,0,-3.4728,-3.4782,-3.4779,-3.482,-3.4839,-3.4821,-3.4867,-3.4883,-3.4915,-3.4928,-3.4909,-3.4976,-3.4989,-3.505,-3.507,-3.5082,-3.5095,-3.5072,-3.516,-3.5168,-3.5176,-3.5205,-3.5216,-3.5083,-3.5083,-3.5082,-3.5082,0,-3.4822,-3.486,-3.4893,-3.4928,-3.495,-3.4993,-3.4996,-3.5019,-3.5014,-3.5019,-3.507,-3.5085,-3.5117,-3.5131,-3.5124,-3.5191,-3.5181,-3.5161,-3.5127,-3.5191,-3.5218,-3.5228,-3.5087,-3.5086,-3.5085,-3.5084,0,0,-3.4915,-3.4949,-3.4962,-3.4978,-3.5004,-3.5033,-3.5075,-3.5109,-3.5129,-3.5152,-3.5187,-3.5233,-3.5216,-3.5233,-3.5229,-3.5258,-3.5323,-3.5235,-3.5235,-3.5252,-3.5399,-3.5415,-3.5427,-3.5313,-3.5315,-3.5317,-3.5398,0,-3.499,-3.5066,-3.5066,-3.5136,-3.5171,-3.5156,-3.5192,-3.5212,-3.5219,-3.5249,-3.5255,-3.5289,-3.5262,-3.5273,-3.5302,-3.5309,-3.5353,-3.5303,-3.5346,-3.5348,-3.5343,-3.5441,-3.5457,-3.5533,-3.5408,-3.541,-3.5411,0,-3.5088,-3.5117,-3.5191,-3.5215,-3.5229,-3.5263,-3.5294,-3.5323,-3.5346,-3.5348,-3.5369,-3.536,-3.5403,-3.5367,-3.5426,-3.5392,-3.541,-3.5416,-3.5419,-3.5423,-3.5384,-3.5449,-3.5556,-3.5568,-3.5427,-3.5426,-3.5425,0,-3.5151,-3.5208,-3.526,-3.5274,-3.5302,-3.5326,-3.5339,-3.5359,-3.538,-3.5407,-3.5421,-3.5451,-3.5468,-3.5492,-3.5492,-3.5466,-3.5552,-3.5516,-3.5555,-3.5555,-3.5574,-3.5573,-3.5687,-3.5584,-3.5584,-3.5583,-3.5583,0,-3.5235,-3.5281,-3.5289,-3.5321,-3.5373,-3.5371,-3.5422,-3.5432,-3.5451,-3.5484,-3.5471,-3.5503,-3.55,-3.5532,-3.5531,-3.5581,-3.5588,-3.5591,-3.5591,-3.5593,-3.5593,-3.5605,-3.56,-3.5586,-3.5586,-3.5585,-3.5585,0,-3.5314,-3.5321,-3.5377,-3.54,-3.5407,-3.5444,-3.5463,-3.5494,-3.5499,-3.5542,-3.5552,-3.556,-3.5597,-3.5599,-3.5641,-3.5641,-3.5701,-3.5694,-3.5694,-3.5693,-3.5733,-3.573,-3.5859,-3.5877,-3.5761,-3.5762,-3.5763,0,-3.5368,-3.5403,-3.5431,-3.5454,-3.5469,-3.5505,-3.5527,-3.5527,-3.555,-3.5579,-3.5606,-3.5642,-3.5671,-3.573,-3.5739,-3.5771,-3.5766,-3.5809,-3.577,-3.5772,-3.5768,-3.5766,-3.577,-3.5817,-3.5818,-3.5819,-3.582,0,-3.5463,-3.5466,-3.5499,-3.5534,-3.5561,-3.5588,-3.5613,-3.5632,-3.5635,-3.5661,-3.57,-3.5723,-3.5767,-3.5802,-3.5834,-3.5845,-3.5834,-3.5832,-3.5843,-3.5846,-3.5845,-3.5848,-3.5716,-3.5829,-3.5828,-3.5827,-3.5827,-3.5826,-3.5532,-3.5564,-3.559,-3.5627,-3.5647,-3.5671,-3.5702,-3.5712,-3.5745,-3.5783,-3.578,-3.5823,-3.5845,-3.5887,-3.5901,-3.5934,-3.5919,-3.5935,-3.5939,-3.5943,-3.5948,-3.584,-3.5939,-3.5939,-3.5939,-3.5939,-3.5938,0,-3.5628,-3.5645,-3.5679,-3.5717,-3.5747,-3.5734,-3.5762,-3.5787,-3.5826,-3.5849,-3.5878,-3.5923,-3.5958,-3.5971,-3.6005,-3.6029,-3.6024,-3.6038,-3.6037,-3.604,-3.5958,-3.5946,-3.6041,-3.6041,-3.6041,-3.6041,-3.6041,-3.6041,-3.5682,-3.5736,-3.5742,-3.5805,-3.582,-3.5864,-3.5881,-3.5904,-3.5922,-3.5974,-3.6004,-3.6012,-3.6031,-3.6067,-3.6099,-3.6101,-3.6115,-3.6131,-3.6132,-3.6056,-3.6045,-3.6035,-3.6024,-3.6134,-3.6134,-3.6211,-3.6211,-3.6212]}]]